Theta_e
284 283 283 283 283 283 282 282 282 282 281 281 281 280 280 280 279 279 278 278 277 277 277 276 276 276 276 276 275 275 274 274 274 274 274 273 273 274 273 273 273 273 273 273 274 274 273 273 273 273 274 273 273 274 274 273 273 274 274 274 273 273 272 271 270 270 273 275 275 274 274 275 274 274 273 274 274 275 277 276 276 276 276 276 276
284 283 283 283 282 282 282 282 282 281 281 280 280 280 279 279 278 278 277 277 277 277 276 276 276 276 275 275 274 274 273 274 273 273 273 273 272 274 273 272 272 272 272 272 273 275 273 273 273 272 274 272 272 272 273 272 272 272 272 273 271 272 273 272 271 270 270 273 273 274 273 274 272 274 273 273 273 275 274 275 275 275 275 275 275
283 283 282 282 282 282 282 281 281 281 280 280 279 279 278 278 278 277 277 276 276 276 276 276 275 275 275 274 274 273 273 272 272 272 272 271 271 271 272 272 272 272 272 272 272 272 272 272 272 272 273 272 272 272 272 272 272 271 271 272 271 271 272 272 271 269 269 270 272 271 272 272 272 272 273 273 274 274 273 274 274 275 275 275 275
283 282 282 282 282 281 281 281 280 280 280 279 278 278 278 277 277 277 276 276 276 275 275 275 275 274 274 273 273 272 272 272 272 272 272 271 271 272 271 272 272 272 272 272 272 272 272 272 272 272 271 271 271 271 271 271 271 270 270 271 271 271 271 272 271 270 270 268 270 270 271 271 271 272 273 273 273 273 273 273 274 274 274 275 275
282 282 282 281 281 281 281 280 280 279 279 278 278 277 277 276 276 276 275 275 275 275 274 274 274 274 274 273 272 272 272 271 272 271 271 271 271 271 271 272 272 272 272 272 275 272 272 272 272 271 271 270 271 271 271 270 271 270 270 270 271 271 272 271 271 271 270 268 269 271 271 271 272 272 272 271 272 272 273 273 273 273 274 274 275
282 282 282 281 281 281 280 280 280 279 278 277 277 276 276 276 276 275 275 275 274 274 274 274 274 273 272 272 271 271 270 270 270 270 270 270 271 272 272 272 272 272 272 272 272 272 272 271 272 271 271 270 270 271 270 270 270 270 270 270 271 271 270 271 272 271 271 270 270 269 270 270 270 271 272 272 271 271 272 273 273 273 273 273 274
282 282 281 281 281 280 280 280 279 278 278 277 276 275 275 275 275 275 275 274 274 273 273 273 272 272 271 271 271 271 270 270 270 269 270 271 271 272 271 271 272 272 272 272 272 272 272 271 271 272 271 271 271 270 270 271 271 270 271 271 271 271 271 272 272 271 271 270 270 270 270 271 271 270 272 273 273 272 271 271 271 273 273 273 273
282 282 281 281 281 280 280 280 279 278 277 276 275 275 275 274 274 274 274 274 273 273 272 272 271 271 270 270 270 269 269 269 269 270 270 270 270 270 271 271 271 271 271 272 272 272 272 272 271 271 271 271 271 271 271 271 271 271 271 271 272 272 272 272 271 271 271 270 270 269 270 270 271 272 273 273 272 272 273 272 270 271 272 273 273
282 282 281 281 281 280 280 280 278 277 276 275 275 274 274 274 273 273 273 273 273 272 271 271 271 270 270 270 269 270 270 270 270 270 270 270 270 271 271 270 270 270 270 270 270 270 270 271 272 271 273 276 276 276 275 275 272 268 270 272 272 272 272 272 271 271 271 270 270 271 270 270 271 271 271 271 271 271 272 273 272 273 273 273 274
282 282 281 281 281 281 281 280 279 278 276 275 275 275 274 273 273 273 274 274 273 271 270 270 270 270 270 269 269 270 270 270 273 276 275 271 271 272 273 272 271 270 269 269 269 270 270 270 271 275 275 275 275 275 275 276 276 275 272 273 272 272 271 271 270 270 270 269 269 270 269 270 271 271 271 272 273 274 273 273 272 273 273 273 274
283 282 281 281 281 281 280 279 278 277 277 276 275 274 274 273 274 274 273 272 271 270 270 270 269 269 269 269 269 269 270 270 275 277 278 277 274 273 272 271 272 272 271 270 269 269 269 270 269 272 273 273 272 274 275 275 275 275 276 276 276 273 271 270 271 271 270 270 271 271 270 270 271 272 272 273 273 273 273 273 273 273 272 270 270
282 282 282 282 281 281 280 279 278 277 277 276 275 275 274 274 273 272 271 270 269 268 268 269 269 269 269 268 268 269 269 274 277 278 278 278 277 274 273 273 272 272 272 271 270 269 269 269 269 270 270 270 271 271 272 273 274 275 275 276 276 276 277 275 273 272 272 271 271 272 271 271 272 273 273 273 273 273 274 273 273 272 272 271 272
283 282 282 282 281 281 280 279 278 278 277 276 275 274 273 273 272 271 271 271 268 268 269 269 268 268 268 268 268 268 268 275 277 278 278 278 278 277 274 273 272 272 272 272 272 271 269 269 268 269 269 272 271 270 268 269 272 274 275 276 276 277 278 279 279 276 275 273 272 271 272 272 272 273 274 274 275 273 273 273 273 273 273 272 273
282 282 282 281 281 281 280 279 279 278 277 276 274 273 273 272 272 271 270 269 269 268 267 267 267 267 268 267 267 267 267 273 277 278 278 278 278 277 274 273 272 272 272 272 272 271 269 268 267 268 268 268 269 269 269 269 269 270 271 272 273 274 277 278 278 277 277 274 273 272 274 275 273 274 275 276 274 273 273 272 273 272 272 271 273
282 282 282 281 281 280 280 279 279 278 276 275 274 273 273 272 271 270 270 270 269 268 268 267 267 267 266 266 266 266 267 274 276 278 278 278 278 277 274 273 272 272 272 272 271 269 268 269 268 268 268 268 269 270 269 271 272 272 273 273 274 275 275 274 275 275 275 275 275 274 274 275 275 275 276 276 275 275 274 272 272 272 272 273 273
282 282 281 281 280 280 279 279 279 277 276 274 273 273 272 271 271 270 269 268 266 266 265 265 266 266 266 265 265 266 266 274 276 277 278 278 278 275 274 272 271 271 270 270 269 269 269 269 268 268 268 268 271 275 275 275 274 274 274 274 273 273 274 276 278 278 276 275 274 274 275 276 278 276 276 275 274 273 273 273 273 272 271 269 269
282 282 281 281 280 280 279 279 278 277 275 274 273 273 272 271 270 269 268 268 268 267 266 266 266 266 265 264 265 265 264 270 275 277 278 278 277 273 272 270 269 268 268 269 270 269 269 269 269 268 268 268 272 275 277 277 275 274 273 272 272 273 273 274 276 277 277 277 278 278 278 278 277 277 277 277 274 274 271 269 268 269 268 267 268
282 282 281 280 280 279 279 279 278 276 275 274 273 274 273 272 270 269 269 268 267 267 266 265 265 265 265 264 265 264 264 267 273 276 277 278 276 271 271 269 268 268 268 269 269 269 269 272 272 271 270 270 274 276 277 277 275 273 273 273 272 272 272 272 272 272 276 276 275 274 273 273 274 273 273 274 275 273 268 266 268 268 267 268 266
281 280 280 280 280 280 280 279 278 276 275 275 274 273 272 271 270 268 268 268 268 266 265 265 263 263 263 264 266 265 263 265 272 275 277 277 276 272 270 268 268 268 268 268 269 269 269 271 273 273 273 274 276 278 278 277 274 274 273 273 271 270 270 270 270 271 269 267 266 266 266 268 267 267 268 272 273 271 269 269 269 268 267 267 267
281 280 280 280 280 280 280 279 278 277 276 275 274 273 271 268 268 268 267 266 266 265 265 264 264 263 263 262 263 265 264 263 265 273 276 277 277 273 270 268 267 267 268 268 267 268 269 269 272 275 276 277 277 278 278 278 275 275 274 271 269 268 269 271 271 268 266 264 263 264 264 265 265 266 266 267 268 269 269 269 268 267 266 265 265
280 280 280 280 279 279 279 279 278 277 276 275 273 270 269 269 267 267 266 265 264 263 263 263 263 262 262 263 262 262 263 263 264 271 274 276 277 276 270 269 268 268 268 268 268 267 268 269 270 274 276 276 277 277 277 277 277 275 272 269 269 271 274 268 266 267 263 262 262 263 263 263 264 265 265 266 266 267 267 268 267 267 266 265 265
280 279 279 279 278 278 278 278 278 276 273 271 270 269 267 267 267 266 265 264 264 263 262 262 262 262 261 261 261 262 263 266 263 268 272 275 277 278 273 271 270 269 269 268 268 268 269 270 271 273 275 276 276 277 277 277 277 273 271 274 275 275 271 265 263 261 260 260 260 261 261 261 262 263 264 265 265 266 266 267 267 267 268 267 266
279 279 278 278 277 277 277 276 275 273 271 270 270 269 266 265 264 264 264 263 263 263 262 261 261 261 260 261 261 261 261 262 268 266 270 273 276 277 278 275 275 272 269 268 268 269 271 272 272 274 275 276 276 277 277 276 275 272 274 275 275 274 267 262 261 260 259 259 260 260 261 261 261 262 263 263 264 265 266 267 267 268 268 268 269
276 277 276 276 276 275 273 272 272 271 270 269 268 267 265 264 263 263 263 263 263 262 261 261 260 260 261 261 261 261 261 261 265 270 269 272 274 277 278 278 277 273 272 270 270 271 272 272 272 275 276 276 277 276 275 274 273 273 274 274 274 269 262 260 258 258 259 259 259 259 260 261 261 261 262 263 264 265 266 266 267 267 267 268 268
276 276 276 275 274 273 271 271 270 269 268 268 268 266 264 263 263 261 262 263 262 263 262 261 261 261 261 261 262 262 262 262 262 265 271 272 275 276 277 278 278 278 274 273 273 273 274 275 276 276 276 277 276 274 272 271 272 272 273 273 269 260 259 257 258 257 257 258 259 259 259 261 262 263 264 264 265 265 265 265 266 266 266 267 267
276 276 275 274 273 270 270 267 267 267 267 268 269 268 266 264 265 263 262 263 262 263 263 261 261 261 261 262 262 262 262 262 262 263 267 270 272 275 276 277 277 277 277 275 276 276 276 276 276 277 276 273 270 267 266 265 270 271 270 269 259 259 257 257 256 257 257 258 259 259 260 261 262 263 264 264 263 262 263 263 264 264 264 264 264
275 274 274 272 269 269 270 268 266 265 265 265 265 265 265 264 264 263 262 263 262 262 263 262 262 262 262 262 261 261 261 262 263 264 265 266 267 269 272 273 276 276 275 274 275 274 274 275 274 275 274 274 272 271 269 268 263 261 260 259 258 257 257 256 257 258 259 259 259 259 260 261 262 262 261 261 261 262 263 263 263 263 263 264 263
275 273 272 270 269 268 269 266 266 265 264 265 265 264 264 264 265 265 263 264 263 263 263 263 263 263 263 262 261 260 261 262 263 264 265 265 265 266 267 268 268 269 270 271 270 269 269 272 273 266 263 261 259 257 257 257 258 259 258 256 257 258 262 264 264 258 258 259 259 259 260 260 259 260 261 260 261 262 263 263 262 262 263 263 262
269 267 267 267 267 266 267 266 266 265 264 263 264 265 265 264 265 266 263 262 264 265 264 264 264 263 263 263 262 261 262 262 264 269 267 269 267 266 266 267 268 268 270 272 269 268 267 267 266 265 263 262 260 258 257 255 256 256 255 255 255 255 255 254 255 257 257 257 258 258 259 259 259 260 260 260 261 262 262 262 263 262 262 262 261
268 268 268 268 266 265 265 264 263 264 263 263 262 261 264 268 266 264 263 268 270 271 270 265 264 264 264 264 264 265 265 265 269 272 272 273 273 273 272 271 272 270 271 274 273 269 268 267 266 265 264 261 260 259 257 255 255 256 255 261 259 255 256 255 255 257 257 257 258 258 258 259 259 260 260 260 261 261 263 264 262 262 261 261 260
269 267 266 267 267 266 265 264 263 262 262 262 261 262 261 264 271 272 270 269 271 273 274 274 273 271 266 263 266 272 272 272 272 273 274 274 275 275 275 275 275 275 275 273 271 269 267 265 264 263 262 261 260 259 256 255 256 255 256 254 254 256 257 255 256 256 257 257 257 257 258 259 259 260 260 260 261 261 261 261 260 261 261 261 261
270 270 268 267 267 265 265 264 263 262 262 261 261 261 262 262 262 270 273 273 272 273 274 275 275 275 274 271 266 265 271 273 273 273 274 274 275 275 276 276 276 277 277 277 272 268 267 266 265 263 262 260 260 257 255 255 255 255 254 254 256 255 255 255 257 255 256 256 256 257 258 258 259 259 260 260 261 261 260 261 261 261 261 261 261
270 269 267 266 266 265 264 264 263 263 262 261 261 261 261 262 263 262 266 273 274 274 274 275 275 276 276 275 274 270 270 272 273 274 274 275 275 275 276 277 277 277 277 274 271 269 266 265 265 263 261 261 259 256 256 254 255 255 254 254 256 255 255 256 258 257 256 257 258 257 258 258 259 260 260 260 260 260 261 260 260 260 260 260 261
269 269 267 266 265 265 265 264 264 263 263 263 262 261 262 263 262 262 261 260 266 272 275 275 275 275 276 276 275 275 274 274 274 274 275 275 276 276 276 274 277 277 275 271 270 268 266 265 264 262 261 259 258 256 255 255 255 254 254 254 256 255 255 254 255 255 255 256 256 256 258 258 259 259 259 259 260 260 260 261 260 260 260 260 261
266 266 265 265 266 265 265 265 264 263 262 262 261 261 261 261 262 261 261 262 263 265 267 270 273 275 273 274 275 276 276 276 276 276 276 276 276 276 276 273 271 271 271 270 267 267 265 264 263 261 259 257 256 255 255 253 253 253 254 254 253 253 254 254 254 255 255 255 255 255 257 258 258 259 260 259 260 260 260 260 260 260 260 261 261
264 265 263 264 264 263 263 263 263 262 262 261 261 260 260 260 261 260 260 260 262 263 263 265 265 267 269 270 271 272 273 274 274 274 274 275 275 275 270 268 268 268 267 268 266 265 263 263 261 260 258 257 255 254 254 254 254 254 253 252 254 253 253 253 254 254 255 255 255 257 258 257 257 258 258 259 260 261 260 260 260 261 261 261 261
263 262 262 262 261 262 261 260 260 261 263 260 260 259 258 259 259 259 259 260 260 260 261 260 260 261 265 263 265 267 269 270 271 271 272 272 273 272 269 268 267 267 266 266 265 263 262 261 259 259 257 256 254 254 253 253 253 252 255 255 253 253 252 251 253 254 254 254 254 255 254 255 256 257 258 259 260 260 259 260 261 261 261 261 261
260 261 260 259 259 259 258 258 258 263 260 259 258 259 258 258 258 259 260 260 261 260 260 260 262 261 260 261 265 263 262 265 266 266 266 266 264 264 265 265 265 265 265 265 263 262 262 261 258 257 255 253 253 253 252 252 252 251 252 251 252 253 257 258 258 255 254 254 254 254 255 255 256 256 258 259 259 259 259 261 261 260 260 261 261
257 263 264 264 264 260 258 258 260 259 257 258 257 258 258 257 257 258 260 260 260 260 259 260 260 260 260 261 260 261 261 259 258 258 257 257 258 259 260 261 261 262 263 263 261 260 259 259 258 256 254 252 253 252 251 253 251 252 251 251 253 252 253 253 253 253 252 252 253 253 253 254 255 256 258 258 258 259 260 260 260 259 259 259 260
258 260 262 265 261 262 259 258 258 257 257 257 256 257 258 258 258 259 259 259 259 259 259 259 259 259 260 259 259 258 257 257 256 255 254 255 255 255 254 256 257 259 260 260 259 258 258 257 255 254 253 251 252 252 251 252 253 253 252 252 252 253 253 253 253 253 252 252 252 253 253 254 255 256 256 257 258 260 261 259 259 259 259 259 260
256 259 261 263 261 259 258 257 256 256 256 256 256 257 258 258 257 258 259 259 259 258 258 258 259 259 259 260 263 263 258 256 256 255 255 255 254 253 252 253 253 254 254 254 255 254 254 253 251 251 250 251 251 253 252 252 253 253 253 254 253 254 254 254 253 253 253 252 251 252 253 253 254 255 256 258 261 260 259 258 258 258 259 260 260
256 257 258 258 259 257 256 257 257 259 258 258 258 258 258 258 258 258 258 257 257 257 258 257 258 256 258 262 263 265 263 260 259 258 258 256 255 255 254 253 251 250 250 250 251 252 251 250 251 250 252 252 253 253 252 253 253 253 253 253 253 253 253 253 253 252 251 251 251 251 252 254 256 258 258 260 258 257 257 256 257 258 258 259 259
256 256 256 257 256 257 257 258 259 259 259 258 257 258 257 257 257 257 257 257 257 257 256 256 255 253 254 260 261 262 257 255 258 258 257 255 254 253 253 252 252 250 249 250 250 250 251 251 252 252 252 253 253 254 254 254 254 253 252 252 253 252 252 252 251 251 250 250 250 252 252 253 255 255 256 257 258 257 256 256 257 257 258 258 258
256 256 256 256 256 256 257 258 258 258 258 257 257 256 257 257 257 257 257 256 256 255 255 254 253 252 252 254 256 254 251 251 250 250 250 251 251 251 252 248 246 247 248 249 250 250 251 252 251 252 252 253 254 253 255 255 254 253 253 253 252 252 251 251 251 250 249 249 249 251 250 252 254 255 256 257 256 255 256 257 257 257 257 258 258
255 256 257 258 258 257 257 258 258 257 256 256 255 255 256 256 256 255 255 255 254 253 253 252 253 252 252 252 250 250 251 250 251 251 251 250 250 251 251 248 248 249 249 249 249 249 250 252 252 252 253 254 255 254 254 254 253 253 253 252 251 251 252 251 251 249 248 247 249 250 251 252 252 254 254 255 255 255 257 257 257 258 257 257 257
256 257 257 258 258 257 257 257 256 257 256 256 256 256 255 255 255 254 254 253 253 253 252 252 252 252 252 252 250 250 251 249 249 249 249 249 249 250 248 247 248 248 248 249 249 248 251 251 252 253 254 254 254 254 253 252 252 251 250 250 251 251 252 251 249 249 249 248 249 249 251 252 252 254 255 255 255 255 255 256 256 257 257 257 257
256 255 255 255 255 256 256 256 256 256 255 255 255 254 254 254 253 252 252 252 252 252 252 252 251 252 252 251 250 250 249 249 249 248 249 250 248 248 248 247 248 249 249 249 248 250 250 251 251 252 253 253 253 252 251 250 249 249 249 250 250 250 250 250 250 249 250 250 250 249 251 252 252 252 253 253 253 254 254 255 255 255 256 256 256
255 256 256 256 256 256 256 256 255 255 254 254 254 253 253 252 252 252 251 251 252 252 252 251 251 250 249 249 249 249 248 249 248 249 249 250 248 248 247 246 249 249 248 249 249 249 249 249 250 251 252 252 252 251 250 249 247 248 248 249 249 250 251 252 250 250 250 248 249 249 250 251 251 251 252 252 252 253 253 254 256 256 256 256 257
255 256 256 256 256 256 255 255 254 254 254 253 252 252 252 252 252 251 251 251 251 251 251 251 251 249 248 249 248 248 248 249 249 248 249 249 248 248 248 247 249 249 249 249 249 248 249 249 250 250 250 250 249 249 249 249 249 249 249 249 250 252 253 253 252 251 252 251 250 250 250 250 250 251 252 252 253 254 255 256 255 256 256 256 256
255 256 256 256 255 255 255 254 254 253 253 253 253 252 252 252 252 252 252 251 251 251 251 250 250 249 248 248 248 249 248 249 250 249 249 248 248 247 248 248 248 248 248 248 248 247 247 245 246 247 248 248 248 248 248 249 249 249 248 249 252 253 253 253 254 254 253 250 251 250 250 251 251 251 251 252 254 255 256 256 255 256 256 256 256
253 253 254 254 254 254 254 254 253 253 253 253 253 252 252 252 252 252 251 251 251 251 249 249 248 248 248 249 249 249 249 249 250 249 248 249 248 247 248 248 249 246 246 247 247 247 247 246 246 247 248 249 249 249 249 249 249 249 251 252 253 253 254 254 253 254 254 254 251 251 251 252 251 252 253 254 256 256 256 257 257 257 256 256 256
Wind_Speed
9 8 8 8 10 10 9 8 8 8 8 7 8 8 7 7 7 7 6 6 6 6 6 5 4 4 4 4 4 4 4 4 3 3 3 3 2 3 3 3 3 2 2 3 3 3 3 3 3 3 1 3 3 4 3 3 3 3 3 4 4 3 3 4 7 12 15 6 4 5 6 8 8 6 11 10 9 9 10 9 10 10 10 9 10
10 9 8 9 10 10 9 7 8 8 8 8 8 8 7 8 7 7 7 6 6 7 6 4 4 4 4 4 4 4 3 3 3 3 3 2 2 2 2 3 2 2 2 2 3 2 2 2 3 3 2 3 3 3 3 3 3 3 3 4 4 4 3 4 6 8 14 15 8 5 6 8 11 6 8 12 12 10 11 9 9 9 10 10 9
9 9 10 10 10 9 9 8 8 9 9 8 8 8 7 7 6 8 7 6 5 6 6 5 5 4 4 4 4 3 3 3 3 3 2 2 2 2 2 2 1 1 2 1 1 1 2 1 2 1 2 3 2 3 3 3 2 3 3 3 3 3 3 3 5 9 11 14 10 9 8 9 9 11 9 8 10 10 11 10 10 10 8 10 10
10 10 10 10 10 9 9 8 9 9 9 8 9 7 7 7 6 7 7 6 7 5 5 6 5 5 4 4 3 3 3 3 2 2 2 2 2 1 1 1 1 1 1 1 1 1 0 1 2 1 2 2 3 2 2 1 2 2 3 3 2 3 3 3 4 6 9 12 13 8 9 10 11 8 8 9 9 10 9 11 9 9 10 9 9
11 11 11 12 10 10 10 9 10 9 9 8 8 8 7 7 6 7 7 7 6 6 5 4 4 4 5 4 3 3 3 3 2 1 2 3 2 1 1 1 1 1 1 0 1 1 1 1 2 2 1 2 3 2 1 1 1 2 3 2 2 4 4 4 5 5 8 10 12 8 7 9 9 10 7 9 10 9 9 9 10 9 10 9 8
12 12 11 13 12 11 11 10 10 10 9 8 9 8 8 7 7 6 7 8 6 5 6 5 5 4 4 4 3 3 3 3 3 2 2 2 3 2 2 2 1 1 0 0 0 1 1 2 2 2 2 2 3 2 1 2 2 2 2 3 3 3 4 4 5 7 8 10 11 14 10 9 12 9 7 8 11 13 12 10 8 8 8 10 9
12 12 12 12 12 11 11 11 10 10 9 9 8 7 8 7 7 8 6 7 8 7 5 5 4 4 4 4 3 3 3 3 2 3 3 3 3 2 2 1 1 0 0 1 1 1 2 2 2 2 2 3 3 3 3 3 3 3 3 3 3 3 5 6 6 8 9 11 12 12 13 11 11 14 10 9 11 11 13 13 12 8 8 9 11
12 12 12 11 11 12 10 10 10 9 8 8 8 8 7 7 7 6 6 7 7 7 7 6 4 4 4 4 3 3 3 3 3 3 3 3 2 2 1 0 0 1 1 1 1 1 2 2 3 3 3 3 3 3 3 3 3 3 3 2 3 6 6 7 8 9 10 11 11 13 11 12 12 10 14 12 14 11 8 11 15 14 12 10 9
13 13 12 12 12 11 10 9 8 9 9 9 8 8 8 7 6 6 6 6 6 6 5 5 5 4 4 4 3 3 4 4 3 4 4 3 3 2 1 1 1 1 2 2 2 3 3 3 3 3 3 5 7 7 7 7 4 3 3 2 5 5 5 5 5 6 7 7 11 11 13 12 11 14 12 14 10 16 13 12 14 13 13 12 11
14 13 13 12 11 11 11 10 10 10 10 10 10 9 8 8 7 7 7 6 6 6 5 4 5 5 4 4 4 4 4 3 5 9 7 5 3 3 2 2 2 2 2 3 3 3 3 3 3 6 7 7 7 8 9 9 9 6 4 4 3 4 4 5 6 6 7 9 8 9 9 10 9 11 15 14 14 11 13 12 15 17 13 12 11
14 13 13 12 11 11 11 11 11 11 11 10 8 9 9 8 7 7 6 6 7 6 6 6 5 4 5 4 5 5 4 3 10 10 10 10 6 4 3 3 3 4 3 3 4 3 3 3 2 3 4 5 4 8 8 9 9 10 10 10 8 6 5 7 7 7 8 9 9 8 8 11 15 12 12 13 11 16 12 15 15 14 16 13 12
14 14 13 12 12 13 12 12 12 12 10 10 10 9 8 8 8 8 7 7 6 5 6 6 5 4 4 4 5 5 4 8 12 11 10 9 8 5 4 4 4 4 4 4 3 3 3 3 2 2 2 3 3 3 5 10 10 10 11 10 11 12 12 10 9 8 8 9 10 10 11 14 15 14 12 14 14 16 16 14 13 16 14 13 12
14 13 13 13 13 12 12 13 12 12 11 10 9 8 9 9 8 8 9 7 6 7 7 7 6 5 5 6 5 5 4 10 12 12 11 10 10 8 4 5 4 5 5 5 4 3 3 2 3 3 3 7 5 4 5 5 9 13 13 13 14 15 15 17 17 12 10 11 12 15 12 13 15 12 12 14 17 17 16 13 12 13 11 14 10
13 13 12 13 13 13 13 13 13 12 10 10 9 10 10 11 9 7 6 6 7 6 5 7 6 6 6 6 5 4 5 9 12 11 11 11 10 8 5 5 5 5 6 6 5 4 3 3 3 4 3 4 4 6 6 6 7 8 8 8 8 11 15 16 16 18 17 13 14 14 14 13 15 16 17 17 17 14 12 11 12 13 14 14 17
12 12 13 13 12 12 13 12 13 11 11 11 10 11 11 9 9 8 9 10 10 10 10 8 7 6 5 5 5 6 6 11 12 12 12 12 11 9 5 5 5 6 6 6 5 3 3 4 4 5 5 5 6 7 7 7 7 8 8 8 7 5 4 6 7 7 7 7 8 10 12 12 13 16 15 14 15 15 14 16 16 15 15 13 11
13 12 13 12 13 14 14 13 13 11 11 11 11 12 11 11 11 9 7 6 4 4 4 4 7 7 6 5 5 7 6 12 13 13 13 12 12 5 5 6 6 6 6 6 4 4 4 5 5 5 5 5 10 14 10 8 7 9 7 5 5 7 8 8 14 16 15 13 12 13 13 15 20 19 19 17 15 14 15 13 12 10 10 9 8
15 15 14 13 14 14 14 14 13 12 12 12 12 12 12 10 8 7 8 8 8 8 9 8 7 7 7 6 7 7 5 10 13 13 13 13 9 4 5 4 4 4 5 5 5 5 4 4 5 5 6 6 12 14 12 12 8 5 6 9 9 7 6 7 14 18 19 19 19 20 23 25 24 24 24 25 18 16 12 12 10 10 11 11 8
15 14 13 13 13 13 13 13 13 13 12 14 15 13 10 8 9 9 11 11 10 10 8 7 6 7 8 8 8 7 7 9 13 13 13 13 10 6 5 4 5 6 5 6 4 4 5 10 9 7 7 8 12 13 14 10 4 6 8 9 8 8 8 7 7 9 13 14 16 19 20 20 20 21 20 21 21 16 10 11 11 10 11 10 12
14 13 13 12 11 12 12 12 12 13 14 14 13 13 12 12 9 8 8 7 8 7 7 7 6 5 6 7 8 8 7 8 11 13 14 13 10 5 6 5 6 6 5 5 5 5 5 8 12 11 9 10 14 13 12 8 5 6 7 6 7 7 7 9 9 7 6 9 9 9 10 12 11 11 12 20 19 16 11 10 9 9 10 10 11
10 10 9 10 10 11 11 12 12 13 15 12 10 11 7 6 8 9 8 7 7 7 7 7 8 7 6 6 7 8 8 7 6 12 14 14 15 7 5 6 7 6 7 6 6 5 5 6 9 12 13 13 12 12 10 12 8 6 4 3 5 10 8 7 5 7 8 7 8 8 8 9 8 8 9 10 11 11 12 11 11 11 10 11 11
9 11 10 10 10 11 10 12 14 13 12 11 10 7 7 9 8 8 9 6 6 6 7 7 7 6 6 6 6 7 7 7 6 11 13 15 16 14 6 8 7 7 6 6 6 6 5 6 5 11 13 13 11 11 11 13 12 5 2 2 4 9 11 4 7 10 6 6 7 7 7 6 6 6 7 9 9 9 10 11 10 10 10 9 10
9 8 9 9 9 10 11 10 10 10 7 7 8 8 5 5 6 7 6 7 8 8 6 6 7 6 4 5 6 8 7 10 6 10 14 16 17 19 8 8 9 6 7 6 6 6 7 6 6 9 12 11 10 11 13 11 12 4 4 12 15 16 5 3 4 4 5 6 6 7 6 6 6 6 6 6 7 8 9 10 10 11 10 10 10
7 7 7 8 9 10 9 10 9 7 8 9 9 9 6 7 6 6 7 7 8 8 8 7 6 6 5 6 6 7 6 7 12 9 13 16 18 18 19 12 16 9 7 7 8 7 7 7 5 11 12 11 11 11 10 12 9 6 12 13 14 11 7 5 6 5 5 6 6 6 6 6 6 7 7 7 7 9 9 9 10 11 10 11 12
6 7 7 8 8 8 8 8 7 7 8 8 8 8 8 7 7 7 7 8 8 8 7 6 6 7 9 8 7 7 6 6 9 14 13 17 17 19 19 19 18 10 9 7 7 8 6 6 7 13 13 12 11 9 8 8 7 12 13 13 11 7 4 6 4 4 6 6 6 6 7 6 5 6 6 7 8 9 10 9 9 9 10 10 12
8 8 8 8 8 7 6 7 8 7 8 9 10 9 8 8 9 6 8 8 8 9 8 7 9 9 8 9 8 6 6 6 6 10 17 17 18 18 19 19 19 19 12 9 9 8 10 14 15 13 13 13 7 4 4 7 11 11 11 11 7 3 4 3 4 5 5 6 6 7 6 6 6 7 8 9 10 9 8 8 7 8 8 9 10
8 9 8 8 8 7 8 6 7 7 8 8 10 10 12 11 10 9 8 9 9 9 9 8 9 8 9 8 8 7 5 5 7 7 8 12 13 17 19 18 18 19 17 11 14 16 15 15 17 16 6 0 1 1 1 2 7 9 10 8 3 3 2 4 4 4 6 6 6 7 8 7 7 7 8 8 7 8 8 9 9 9 8 9 10
8 6 8 7 6 7 10 8 7 6 7 6 6 7 7 8 8 9 10 10 10 9 9 10 9 9 10 9 6 5 5 6 6 6 6 7 7 8 10 10 15 16 11 9 10 9 9 10 7 9 7 7 2 1 2 3 3 3 3 2 2 2 3 2 4 5 5 6 7 7 6 7 7 7 7 7 7 7 5 8 8 9 9 9 10
8 7 7 6 7 7 8 9 9 8 8 9 9 8 8 9 11 13 14 14 14 13 11 11 12 11 10 7 5 5 6 6 7 8 8 8 7 6 6 6 6 5 6 5 3 3 4 7 11 3 2 2 1 2 1 0 2 3 3 2 2 4 5 6 6 4 4 5 6 6 7 6 7 7 7 6 6 6 6 7 7 9 9 9 10
5 5 6 6 7 6 6 7 7 8 8 7 8 8 10 11 12 10 5 3 7 9 9 9 8 5 5 7 8 7 6 8 10 11 9 10 10 7 7 7 6 6 8 10 7 5 4 6 6 6 3 3 1 2 3 2 2 1 2 3 4 3 2 2 4 5 5 4 6 6 7 7 8 7 7 7 6 7 6 6 6 7 9 7 8
6 6 7 7 6 7 7 7 7 7 8 8 8 6 5 8 8 7 7 7 12 12 9 9 7 7 7 7 7 9 9 8 8 13 15 16 17 17 14 13 13 10 11 16 11 7 7 7 7 7 7 5 4 5 5 3 3 4 3 4 3 2 4 4 4 5 5 5 5 5 6 7 8 7 7 7 8 6 6 8 8 7 8 9 9
7 7 7 8 10 9 8 7 7 7 7 7 7 8 7 6 13 16 12 10 12 15 16 15 13 13 10 7 8 14 11 8 9 11 14 16 17 17 17 16 17 17 17 11 11 8 6 6 6 5 6 5 5 6 4 3 4 4 5 3 2 3 5 4 5 5 6 5 5 5 6 6 7 7 7 8 8 8 6 5 5 6 7 8 9
8 9 9 7 8 8 7 7 7 8 7 7 7 7 8 8 7 11 17 16 16 16 16 16 16 15 16 12 7 5 10 12 11 12 13 14 15 16 16 17 18 18 18 18 11 7 7 7 7 7 6 6 6 5 4 4 4 5 4 3 5 3 3 4 4 3 5 5 5 6 5 6 6 7 7 7 8 7 7 7 6 7 8 7 8
7 6 6 7 7 8 8 8 8 8 9 9 8 7 8 8 9 7 6 13 17 16 17 16 17 17 15 15 14 11 9 10 13 13 13 14 15 16 17 18 18 19 19 13 8 6 5 6 7 6 6 7 6 4 5 4 5 4 5 5 5 4 3 4 3 4 4 6 5 5 5 6 7 8 8 7 7 8 7 7 7 7 7 9 9
8 7 7 8 8 8 8 8 8 8 7 7 7 8 8 8 7 5 5 3 6 11 15 17 16 15 16 16 14 14 13 14 13 14 15 15 15 15 15 13 17 18 14 8 7 7 5 7 7 6 5 4 4 4 4 5 5 5 4 5 5 4 4 3 3 5 4 5 5 6 6 6 7 7 7 6 5 6 7 7 7 8 8 8 10
6 6 8 7 7 7 7 6 7 6 6 7 7 6 7 5 5 6 6 7 8 7 5 6 10 13 10 10 12 13 13 13 14 15 15 15 15 15 15 9 8 7 7 6 3 5 6 7 7 5 5 4 5 5 6 5 4 5 5 5 4 4 4 4 4 5 5 5 5 5 6 6 6 7 6 7 7 7 7 7 7 7 8 9 9
4 4 4 5 5 4 4 5 5 6 6 6 5 5 5 5 6 5 4 4 5 5 3 2 1 5 6 5 6 5 7 9 10 10 11 11 11 12 7 6 6 6 6 7 7 7 5 5 4 5 4 4 5 5 6 6 5 6 5 4 5 5 4 5 6 5 5 5 6 5 6 6 6 7 6 6 7 7 7 7 7 7 8 7 8
4 4 4 4 4 4 3 3 4 4 4 4 5 5 4 4 4 3 4 4 4 2 4 2 2 2 2 2 4 6 7 7 8 9 10 11 13 9 6 6 6 7 6 7 5 5 6 5 5 4 4 5 5 6 5 6 6 5 4 5 4 5 5 4 6 6 6 5 5 5 5 6 6 6 6 7 7 6 6 7 7 8 9 11 12
3 4 3 3 3 3 4 4 3 5 5 4 4 4 4 4 4 4 5 4 4 4 4 3 2 3 4 4 3 2 2 6 6 5 6 7 6 4 4 3 3 4 6 4 4 5 6 5 5 5 5 4 5 5 6 6 5 5 6 4 4 5 7 6 7 5 5 6 6 5 5 6 6 6 6 7 7 7 7 8 6 7 9 11 8
1 3 5 5 4 4 4 4 5 5 4 4 4 5 6 5 4 4 4 4 4 4 3 3 4 5 6 1 1 2 1 1 1 3 3 3 3 4 4 5 5 6 6 5 4 4 5 5 4 4 3 4 6 6 5 6 4 5 5 4 5 5 5 5 5 5 5 5 5 5 5 6 6 6 6 6 7 7 8 7 5 7 8 8 8
2 2 3 5 4 4 5 5 5 5 6 5 5 5 5 5 5 5 4 5 5 4 3 4 4 5 3 1 2 1 2 4 3 4 3 4 4 5 4 4 5 6 6 6 5 4 4 4 3 3 4 4 6 6 5 5 5 5 5 5 5 6 6 5 5 5 6 5 5 5 5 6 6 6 6 6 7 7 6 6 6 7 7 8 9
2 2 3 4 5 4 4 5 4 5 5 5 6 6 5 5 4 4 5 5 5 4 4 4 5 4 3 4 8 7 5 4 4 4 5 5 5 5 6 6 6 5 6 5 5 4 5 4 3 4 4 5 5 5 5 5 5 4 5 5 5 5 5 5 5 6 6 5 5 5 5 6 6 6 6 6 8 7 6 6 6 7 7 7 8
3 2 2 3 4 3 4 4 4 4 4 5 5 5 4 5 5 5 5 4 4 4 4 4 4 3 5 9 8 10 6 3 5 5 4 5 5 6 7 7 6 5 5 6 6 6 4 4 4 4 5 5 5 5 5 5 5 5 5 5 5 5 6 6 6 6 5 5 5 5 5 6 6 6 7 8 6 6 6 6 6 6 6 7 8
4 3 3 4 3 2 3 3 3 3 4 3 3 3 4 5 4 4 5 4 4 4 5 5 4 2 3 7 6 7 2 2 0 1 2 3 4 6 6 6 5 6 5 5 5 4 4 4 5 6 5 6 5 5 5 6 5 5 5 5 6 6 6 6 5 6 5 5 6 5 5 5 6 5 6 7 6 6 6 7 7 6 6 7 7
4 5 5 4 4 3 3 3 3 2 3 2 2 3 3 3 4 4 5 5 4 4 4 4 3 3 3 4 3 4 3 4 3 4 3 4 5 6 6 4 4 4 4 4 4 3 4 5 5 5 5 5 5 4 5 4 4 5 5 5 6 6 6 6 7 7 6 6 6 6 6 4 5 6 7 7 6 7 7 7 6 5 6 7 7
4 5 5 4 4 4 3 3 4 3 3 3 2 2 2 4 4 3 4 4 3 3 4 3 2 3 4 4 3 4 5 5 5 5 6 6 5 6 6 5 5 5 5 5 4 3 4 5 5 4 5 5 4 4 5 4 4 5 5 6 6 7 8 7 7 5 4 4 6 5 5 5 5 6 6 6 6 7 7 7 6 6 7 7 7
4 4 4 4 3 3 4 3 2 4 3 3 3 2 2 3 3 3 3 3 4 3 4 3 3 3 4 5 5 6 6 4 5 5 6 5 6 6 5 5 5 4 5 6 5 4 5 5 5 5 6 6 5 4 4 4 5 5 5 5 7 8 7 6 4 4 5 5 6 5 5 5 6 6 8 6 5 7 7 7 6 6 6 7 7
3 4 3 4 4 3 2 2 2 2 2 2 2 3 3 3 3 3 4 4 3 4 4 4 4 5 5 6 6 6 6 4 5 5 5 6 5 6 7 5 4 6 5 5 4 5 4 5 5 5 6 6 5 5 5 5 4 5 4 5 6 7 6 6 5 5 6 6 6 5 6 5 6 6 8 7 7 7 8 7 6 6 6 6 7
4 4 3 3 3 3 2 2 3 2 2 2 3 3 3 3 3 4 4 4 4 4 4 4 5 5 6 6 5 4 4 4 5 6 6 6 6 6 6 4 5 5 5 5 4 4 4 4 5 5 5 5 6 6 6 5 5 5 5 5 6 6 7 7 6 6 6 5 6 6 6 7 6 7 7 7 7 7 7 7 6 5 6 6 7
4 4 4 3 3 3 3 3 2 3 4 4 3 4 4 3 4 4 4 4 4 5 5 5 6 6 5 5 4 4 4 6 6 6 7 7 6 6 6 4 5 5 6 6 5 4 4 5 4 5 5 5 6 6 6 5 6 6 6 6 7 11 12 12 8 7 7 6 6 6 6 7 7 7 7 7 8 7 7 7 6 7 7 6 6
3 3 3 3 2 2 2 3 4 5 3 4 4 4 4 4 4 4 4 4 5 5 5 5 6 5 4 3 5 5 4 5 6 6 7 7 7 5 6 5 5 5 5 5 5 4 4 3 4 5 5 5 6 6 6 6 6 6 5 6 9 12 12 13 14 13 9 6 7 6 7 7 7 7 7 7 7 8 8 7 7 7 6 6 6
3 2 2 2 2 2 2 2 3 3 3 3 3 4 4 4 4 4 4 5 5 6 5 5 4 4 3 4 5 5 6 6 6 6 6 6 6 5 5 6 6 5 5 5 5 5 5 4 5 5 5 6 6 6 6 6 6 6 8 11 13 13 14 13 9 10 13 9 6 6 7 8 8 8 8 8 8 7 8 7 7 7 6 6 6
Wind_Direction
146 146 140 141 142 146 147 146 138 132 128 132 133 139 139 134 132 134 126 130 133 125 124 128 124 124 121 111 104 100 90 77 77 87 84 77 65 93 65 70 62 18 44 12 22 50 46 33 354 348 6 29 2 353 349 338 352 4 6 19 1 334 324 291 284 289 293 290 312 327 333 327 322 345 323 322 321 316 315 310 311 316 316 315 313
153 149 147 148 151 150 149 143 137 134 134 139 141 144 142 138 139 136 134 143 134 132 131 132 129 124 117 112 107 107 104 101 94 93 91 81 50 65 71 61 62 29 47 31 5 19 43 42 343 347 346 28 357 349 338 343 358 21 13 11 342 324 301 295 288 285 291 305 317 338 327 328 315 334 325 320 318 314 313 314 312 314 314 310 310
151 149 149 153 155 153 146 145 141 141 142 148 149 148 143 140 145 142 142 140 133 135 139 135 133 123 117 119 114 114 113 104 99 99 100 114 96 54 71 83 76 49 35 5 352 357 24 17 325 338 342 6 344 335 334 342 16 34 1 344 325 305 308 302 301 296 297 295 312 325 330 322 316 320 320 307 303 306 310 312 313 310 304 305 306
152 152 153 156 156 152 151 146 145 148 151 156 153 151 146 148 148 142 143 139 137 138 135 139 131 133 131 125 128 123 111 113 89 107 131 120 113 92 46 57 79 80 92 12 353 14 337 352 316 335 334 358 325 330 327 14 41 15 338 322 316 302 304 296 283 288 296 298 308 328 320 319 312 312 309 303 302 305 302 302 300 298 300 299 299
156 159 159 157 161 157 155 154 153 157 157 159 157 151 153 151 152 149 144 143 143 136 134 132 138 141 141 139 134 134 138 128 118 97 102 131 132 110 65 77 73 75 74 76 358 63 338 322 289 305 326 329 311 322 321 37 321 335 320 298 288 288 289 283 278 272 286 291 300 308 314 304 301 305 312 312 308 298 295 296 299 299 296 293 294
164 161 164 162 163 163 160 158 161 163 163 161 160 160 157 156 155 155 152 147 142 144 146 150 156 154 137 138 140 145 141 136 144 161 146 102 84 86 93 87 75 72 21 0 30 335 320 293 279 276 302 299 293 297 268 291 294 296 290 279 269 280 279 282 294 302 298 297 304 311 316 319 316 311 316 311 310 310 307 298 292 293 296 299 292
167 167 169 167 164 166 166 167 165 165 167 164 159 161 163 159 157 159 161 152 150 153 153 149 157 139 135 135 148 150 148 145 149 145 122 99 98 89 64 64 39 328 326 308 319 299 291 277 282 282 278 276 277 272 268 279 280 274 263 264 272 278 306 311 310 307 304 304 304 305 308 311 314 313 316 309 297 299 304 310 303 297 292 294 300
169 171 170 171 171 169 170 166 165 168 165 159 163 164 160 160 159 159 156 157 157 156 158 156 153 143 138 150 157 149 153 158 149 133 118 119 115 106 125 166 231 317 293 301 283 275 279 285 277 275 264 262 247 254 265 281 267 264 263 261 262 303 303 298 295 294 297 298 300 308 307 308 308 302 306 309 311 298 297 305 305 308 305 297 289
172 174 175 176 175 169 165 166 164 165 161 160 163 166 166 162 160 163 164 158 151 148 145 150 145 143 149 154 169 171 174 188 162 151 135 133 141 151 184 202 223 253 273 271 277 272 277 278 274 267 267 279 302 311 306 303 298 290 275 255 292 289 285 290 292 297 291 286 298 300 298 295 300 306 308 308 302 305 302 302 292 291 297 299 292
174 177 179 179 172 170 168 166 169 166 165 169 171 167 164 163 163 164 168 160 145 143 142 150 156 156 163 177 183 192 190 191 180 177 166 155 158 168 190 208 226 231 240 260 262 261 257 255 270 294 302 307 304 305 302 301 302 303 294 294 287 297 294 295 295 289 287 287 282 283 283 281 288 300 295 294 293 292 291 293 297 300 294 289 282
180 178 182 179 173 170 169 172 168 172 173 170 168 167 167 164 166 168 165 160 155 152 151 160 168 169 173 182 192 198 199 195 195 190 185 176 166 183 197 209 228 236 235 239 244 247 255 254 254 283 296 295 292 293 300 302 303 303 302 301 300 297 297 290 281 276 280 282 284 278 277 283 290 288 288 293 296 294 288 295 291 297 299 298 297
180 184 183 177 177 176 175 170 172 175 172 177 173 172 166 166 170 172 166 162 162 151 164 180 172 174 178 188 199 204 204 206 204 199 194 194 186 183 200 214 221 236 239 235 241 235 239 245 256 252 253 261 266 274 291 294 296 297 297 293 290 287 286 283 288 291 289 291 298 295 292 291 291 295 295 299 300 298 293 289 288 287 290 285 292
185 183 182 181 180 178 173 173 176 176 180 175 171 166 171 174 172 171 181 172 152 167 182 174 184 181 183 194 205 209 211 217 210 202 201 198 203 200 203 213 223 230 236 242 240 241 231 239 255 250 252 281 288 278 262 262 277 281 281 279 277 276 285 292 293 294 302 299 292 288 285 291 294 295 299 302 301 293 292 291 288 287 287 291 290
185 184 182 185 181 177 176 178 181 181 175 171 169 174 177 184 182 178 161 158 172 175 179 187 182 188 192 194 203 212 214 225 214 209 204 204 205 208 206 213 224 230 235 237 238 230 234 239 248 260 253 261 265 265 265 262 259 256 256 255 251 261 272 282 291 292 289 283 281 284 292 297 297 298 301 299 298 295 296 290 309 311 311 309 312
188 188 189 187 179 179 180 181 183 178 174 173 176 182 185 181 177 177 176 178 177 184 186 187 193 187 191 189 197 217 224 224 220 213 208 205 209 208 209 217 222 233 234 235 236 232 235 238 239 247 251 252 254 256 251 250 255 258 261 266 263 257 267 278 277 264 275 287 281 284 295 300 298 300 303 310 312 314 318 315 314 309 299 296 293
193 190 193 186 183 184 181 184 184 178 175 178 181 186 188 185 183 179 177 180 177 159 186 182 185 189 188 184 196 224 234 229 225 220 213 208 208 201 207 219 225 229 234 231 235 236 234 235 240 246 248 250 258 271 281 278 268 270 277 282 301 301 287 292 309 312 310 306 302 299 300 303 310 313 314 315 317 318 312 307 302 298 305 302 293
196 196 193 187 188 187 185 184 184 180 178 179 187 191 187 190 187 169 175 184 180 188 191 191 186 179 181 186 199 228 233 237 233 227 219 209 205 177 199 210 225 227 236 231 231 233 228 233 236 239 246 246 257 270 279 285 278 286 308 310 296 289 302 318 310 307 307 305 306 312 315 316 316 317 318 319 317 318 320 317 318 326 309 303 298
200 193 192 192 190 186 187 187 185 181 179 188 193 195 192 188 183 178 182 181 190 196 184 180 184 181 182 193 198 214 232 235 236 233 223 215 204 175 194 200 229 233 231 236 228 234 233 246 248 239 240 240 257 272 276 282 305 318 306 291 296 308 308 311 305 293 302 319 325 322 322 321 324 325 323 322 324 329 326 316 314 310 310 311 313
196 193 195 189 186 188 190 189 186 183 188 197 194 190 190 190 181 178 192 188 193 169 172 180 183 190 191 190 199 211 233 236 236 235 230 221 213 173 191 203 223 226 218 229 232 221 232 243 249 250 247 253 264 272 282 296 308 291 286 295 302 308 308 306 301 321 342 331 326 331 324 327 325 323 322 327 330 331 322 312 314 317 316 316 315
190 191 189 185 188 190 190 189 189 188 197 197 193 198 180 160 174 183 190 182 175 175 177 182 185 197 186 183 204 214 226 236 232 239 237 230 222 195 177 200 219 221 221 223 222 231 221 226 244 254 261 266 272 275 284 295 295 293 309 317 316 304 297 290 339 343 334 334 316 318 314 315 315 322 326 328 328 328 331 333 332 330 326 324 319
184 192 187 186 188 189 188 190 193 198 197 193 185 177 177 184 173 178 181 173 164 175 186 187 189 197 196 201 202 220 219 233 238 236 243 237 230 218 176 210 218 221 220 223 220 219 224 229 220 245 254 261 268 272 283 291 294 314 349 307 279 286 303 21 340 347 331 321 315 312 313 312 314 319 323 331 329 330 327 325 323 323 317 312 308
187 182 184 186 186 185 190 195 197 193 178 159 167 186 185 170 180 177 168 171 179 188 188 188 191 201 206 213 216 221 223 227 235 250 247 244 235 226 207 200 212 214 223 221 225 233 235 228 214 236 252 258 259 271 284 293 300 324 313 300 300 301 343 35 345 336 328 316 313 310 312 314 316 321 322 323 322 319 321 321 320 317 309 306 304
174 176 178 180 186 189 190 186 184 172 175 178 176 182 169 167 167 163 168 176 185 191 196 192 190 206 219 227 227 226 221 224 233 240 249 246 241 234 229 219 222 217 208 222 225 228 231 226 220 249 254 248 260 275 289 300 312 310 299 302 300 320 27 352 352 329 315 311 308 307 308 312 318 320 321 319 315 312 309 308 306 311 311 307 304
156 169 181 188 183 186 184 182 179 172 172 167 172 168 171 170 167 177 178 180 186 197 204 196 197 207 218 230 226 227 221 215 230 235 242 244 243 238 235 232 224 218 220 222 223 225 218 230 242 246 244 249 260 274 294 310 307 303 305 302 313 6 11 354 327 314 305 304 303 302 306 305 305 306 309 308 308 308 305 302 301 299 301 299 300
166 182 190 187 185 181 170 177 178 175 172 168 171 175 171 166 177 188 179 191 193 201 205 193 205 211 214 225 227 222 218 214 219 233 237 241 240 238 237 235 234 231 230 226 224 220 236 242 246 245 242 252 262 300 335 313 303 301 303 309 349 20 344 321 310 308 309 300 297 297 296 298 294 292 297 303 302 299 295 296 295 291 289 289 288
178 193 189 185 182 164 169 177 177 179 176 183 187 183 179 181 187 184 187 198 198 202 203 198 211 211 219 225 222 220 213 211 221 225 232 239 240 239 237 236 236 237 239 242 240 244 246 248 250 256 266 69 102 118 145 233 285 302 314 328 6 327 310 305 300 301 287 292 292 297 297 299 302 299 298 295 296 295 302 307 313 312 313 311 311
186 184 188 181 167 170 177 181 179 179 184 185 188 181 181 185 184 186 193 195 200 205 208 203 208 211 220 221 214 203 214 215 219 220 218 222 230 237 241 243 242 241 244 247 251 252 256 259 264 258 258 269 275 313 321 319 330 326 318 308 295 277 279 262 259 264 284 289 293 290 293 294 297 304 303 301 293 290 294 306 310 313 319 319 314
185 191 184 172 177 181 187 178 174 183 190 185 187 192 197 191 191 197 193 196 195 207 203 206 208 207 213 202 190 205 220 218 218 215 218 213 218 220 228 236 239 244 248 244 236 250 253 265 267 296 55 55 18 35 0 276 228 272 285 280 274 274 275 289 303 294 285 277 283 293 293 302 302 301 301 296 291 295 304 307 313 313 319 319 319
173 168 166 163 183 183 184 179 190 187 193 204 217 206 195 196 207 221 233 207 212 206 203 217 217 207 196 195 188 212 219 222 225 214 212 208 206 207 217 219 217 224 230 235 240 243 236 236 226 239 222 214 232 281 286 296 287 247 271 293 280 276 289 303 284 279 272 287 288 292 298 301 299 296 295 298 300 306 306 307 309 312 312 312 307
168 180 175 179 177 175 187 190 190 191 193 202 208 245 253 222 223 217 224 204 214 223 206 212 200 188 204 217 190 201 210 220 220 218 220 221 223 221 220 221 221 219 225 234 235 220 213 212 215 213 219 204 214 235 246 241 264 289 275 261 277 297 280 265 262 277 282 279 282 296 296 297 295 297 299 302 303 303 308 321 313 314 314 316 314
179 184 178 195 190 189 186 189 192 193 197 193 199 210 238 249 230 227 221 215 220 223 224 225 214 202 193 216 222 228 237 228 215 218 223 223 225 229 232 231 230 230 231 230 240 227 204 207 213 210 218 216 220 230 227 221 235 243 264 263 247 253 273 272 270 275 283 290 292 284 285 288 288 294 300 302 305 309 311 301 298 308 311 312 312
189 199 199 195 184 187 190 187 182 189 198 194 196 201 209 225 254 236 229 226 225 227 230 230 228 223 214 207 194 233 236 234 229 227 226 227 231 234 239 242 242 241 241 244 243 219 201 207 204 206 205 213 228 221 215 222 230 228 241 271 271 240 239 261 262 266 283 291 290 289 286 286 289 291 292 297 304 309 310 315 319 318 313 308 301
205 206 198 190 189 186 185 189 193 192 194 193 201 196 203 211 222 236 238 233 231 231 232 232 233 233 231 228 217 205 211 223 230 233 233 234 237 240 243 246 248 249 251 249 244 242 200 215 213 204 198 218 227 227 237 222 228 230 218 231 255 258 242 254 289 288 274 271 277 282 287 288 287 290 289 294 303 306 311 309 313 312 310 311 311
209 199 194 194 189 195 195 197 194 200 197 195 197 195 210 207 219 200 199 241 245 238 234 233 233 235 237 234 235 235 229 229 233 237 242 245 245 248 251 253 254 254 252 253 251 250 225 217 217 209 209 216 227 230 240 236 227 227 235 236 243 258 264 263 275 274 276 276 279 278 282 281 281 290 295 294 293 294 298 305 312 316 318 316 312
217 223 207 192 198 203 198 196 196 191 187 193 193 197 204 201 194 194 195 201 212 214 209 217 228 229 230 234 240 241 243 245 243 243 247 249 254 258 259 254 249 247 249 261 269 251 228 220 212 209 191 208 218 218 235 235 232 228 231 240 249 255 266 266 261 264 270 277 275 276 272 281 289 290 292 298 304 304 303 309 309 310 313 315 317
220 226 224 210 206 204 195 192 186 186 190 193 185 191 179 179 193 200 195 201 207 207 206 184 149 21 12 12 9 330 295 278 267 267 267 269 267 260 256 252 254 249 248 247 245 250 235 237 216 217 194 213 214 220 226 229 230 228 224 223 248 248 254 260 263 267 268 265 267 277 291 291 287 290 290 286 284 292 303 301 302 306 311 312 314
210 220 217 211 201 189 176 169 173 171 170 159 161 162 162 175 174 169 179 181 177 164 170 130 44 323 349 3 336 315 312 304 298 292 285 279 273 265 255 253 246 252 246 246 228 219 231 228 215 222 207 219 220 219 219 229 232 231 233 228 223 244 250 246 254 250 259 271 277 283 281 280 284 285 291 293 295 294 296 295 294 306 317 318 321
202 206 199 172 150 142 138 151 157 152 143 143 147 152 159 162 164 167 171 173 172 168 167 146 178 206 241 260 41 38 329 317 322 321 342 349 352 336 325 328 312 279 269 252 225 224 235 231 210 216 222 207 227 226 221 233 231 228 233 241 243 240 258 261 273 283 285 279 277 277 279 282 282 286 291 290 295 301 296 293 298 311 315 315 315
157 165 154 149 154 147 148 142 147 131 134 134 145 145 156 151 150 155 162 159 168 158 163 162 178 190 227 127 341 346 3 351 19 286 310 312 309 309 300 299 292 285 279 275 253 237 233 230 221 218 219 221 230 231 218 232 225 231 232 237 253 257 264 269 270 260 260 262 268 268 273 275 279 280 282 286 288 290 289 290 308 314 312 312 311
139 138 149 141 121 134 136 141 136 139 146 139 144 143 142 156 170 172 163 158 158 150 163 187 198 213 175 103 132 100 191 231 241 245 246 264 273 282 279 272 270 264 266 262 250 243 251 247 240 248 250 243 230 233 227 225 228 232 228 232 241 257 256 253 258 259 258 257 263 270 271 277 278 280 280 275 277 280 290 308 306 304 303 304 308
108 127 126 124 124 114 110 123 136 150 149 150 153 151 159 153 154 152 148 162 178 183 195 199 204 197 196 226 240 223 195 214 219 221 230 244 253 258 259 254 246 259 263 260 256 244 237 245 248 235 242 239 237 235 235 230 231 231 234 241 241 251 258 256 254 259 261 262 264 270 272 276 281 282 282 278 283 292 302 298 297 295 299 302 307
88 88 90 91 100 108 117 120 132 129 135 142 152 159 158 156 160 161 175 175 178 181 183 194 192 212 237 239 247 253 245 197 210 217 225 223 233 243 242 245 243 237 236 230 221 224 223 222 235 234 239 248 238 241 233 237 231 231 235 239 246 251 254 256 256 258 260 263 263 266 270 270 278 285 290 296 295 289 288 292 291 293 296 304 310
100 93 94 95 100 113 127 135 131 133 138 153 157 156 154 154 157 163 167 172 175 172 174 193 222 217 249 258 270 279 333 7 306 235 224 230 240 252 252 248 246 237 229 230 223 208 216 225 239 236 231 239 232 228 228 233 224 228 230 237 243 245 252 258 260 261 260 262 262 264 266 273 284 286 283 281 284 290 291 291 289 290 296 302 305
112 107 106 104 103 87 90 107 108 76 92 121 127 139 145 140 135 138 125 153 168 186 190 211 214 226 249 284 306 312 314 290 287 269 257 257 256 263 269 267 256 257 254 247 243 222 220 239 248 252 243 242 238 232 232 236 218 225 230 234 243 246 248 251 251 252 250 251 257 261 266 277 282 284 283 284 292 294 287 284 286 295 303 304 306
109 111 116 113 112 118 112 105 107 119 113 116 133 140 134 114 129 124 134 163 185 197 211 214 216 225 251 254 247 245 252 256 259 258 258 253 258 263 266 270 261 258 261 263 257 245 243 243 248 252 258 250 239 238 240 237 228 229 226 225 232 245 247 245 245 241 231 237 254 268 272 268 274 273 276 281 284 280 282 286 290 301 303 303 305
103 106 108 116 110 99 78 103 97 111 112 127 155 110 98 114 138 159 179 186 199 208 224 223 219 225 234 246 243 240 241 238 245 248 258 267 260 261 258 255 258 255 252 255 255 241 238 235 241 247 252 257 258 249 245 241 239 235 232 225 232 242 248 251 246 242 239 237 248 250 262 265 264 263 272 277 284 284 278 281 284 281 281 294 296
91 99 101 103 109 107 92 91 104 108 122 136 150 138 179 172 178 190 204 200 211 221 226 231 230 235 232 234 232 236 236 238 247 253 249 249 252 251 258 258 262 264 265 256 248 244 240 243 240 243 251 258 260 259 254 246 243 242 240 237 239 245 250 251 245 242 244 240 235 240 249 257 267 268 276 277 277 275 279 280 275 281 286 292 292
106 103 107 113 108 119 126 138 129 133 148 159 166 184 193 197 201 202 214 218 222 226 234 235 232 236 233 240 235 243 245 251 255 255 255 251 251 249 250 251 256 258 260 261 252 243 238 241 242 247 252 258 258 260 258 250 247 239 242 240 239 240 244 244 248 246 241 240 234 236 239 247 255 260 264 265 266 267 274 274 279 282 287 290 291
114 122 130 134 144 145 156 158 162 172 173 177 181 193 200 207 212 216 215 221 226 230 227 233 237 236 233 243 245 251 253 256 254 256 254 254 254 254 251 250 253 251 251 257 253 246 240 240 239 244 245 251 250 251 256 253 249 243 242 238 241 244 247 249 247 246 235 230 231 232 238 240 247 252 255 257 261 258 256 264 276 283 287 286 284
112 119 129 128 140 158 149 147 168 160 174 184 192 204 210 213 228 229 230 228 236 236 236 233 238 236 237 256 256 255 249 250 251 251 253 253 253 251 253 252 252 250 246 249 253 251 245 244 244 247 247 247 246 246 246 248 249 247 246 243 248 251 251 250 250 247 245 237 231 229 228 240 242 246 246 247 251 259 265 268 269 273 277 280 283
87 98 106 120 139 147 168 178 195 201 203 200 203 208 211 219 225 228 225 229 231 237 235 234 240 249 250 247 249 252 251 251 250 252 253 255 256 253 252 252 254 254 253 252 256 255 251 247 246 244 243 244 245 245 245 245 249 248 250 252 253 251 251 251 248 245 246 242 228 225 230 234 239 240 243 242 243 241 255 267 272 271 271 277 283